Location: ????????
(60.4333°N, 46.4710°E)
Time: 02:47:14
(UTC+00:00)

CZ-4 R/B - Pass Details

Date: 25 November 2020
Orbit: 533 x 597 km, 97.7° (Epoch: 19 January)

Event Time Altitude Azimuth Distance (km) Brightness Sun altitude
Rises 12:51:38 0° 98° (E) 2,740 4.4 -5.6°
Reaches altitude 10° 12:54:47 10° 70° (ENE) 1,864 3.4 -6.0°
Maximum altitude 12:56:36 13° 43° (NE) 1,694 3.2 -6.1°
Drops below altitude 10° 12:58:27 10° 16° (NNE) 1,887 3.6 -6.3°
Sets 13:01:40 0° 349° (NNW) 2,806 4.7 -6.7°
